Wind_Speed
5 5 5 5 5 5 6 6 5 4 4 4 4 4 4 3 3 3 3 3 3 3 3 3 3 3 3 3 4 4 4 4 5 5 5 5 6 6 6 7 7 8 8 8 8 8 8 8 8
6 5 5 5 5 5 5 5 5 4 4 4 4 4 5 4 3 3 4 4 4 4 4 3 3 4 4 4 4 4 5 5 5 5 6 6 7 7 7 8 8 8 8 8 8 8 9 9 9
6 6 6 6 6 7 6 5 5 5 5 5 5 5 5 4 4 3 4 4 4 4 3 4 4 4 4 5 5 5 6 6 6 6 6 7 7 8 8 8 8 8 8 8 8 9 9 10 10
8 7 7 7 7 7 6 6 6 5 5 5 5 5 5 4 4 4 4 4 4 4 4 4 5 5 5 5 5 6 6 7 7 7 7 7 7 8 8 8 8 8 8 8 8 8 9 9 10
8 8 8 8 8 7 6 6 5 5 5 5 4 4 4 4 4 4 4 4 4 4 4 5 5 5 5 6 6 6 7 7 7 7 7 7 7 7 7 7 8 7 8 8 9 9 8 9 10
9 9 9 8 7 6 6 6 6 6 5 5 5 4 4 4 4 4 4 4 4 4 4 4 5 5 6 6 6 6 6 7 8 7 7 7 7 7 7 7 7 7 8 8 9 9 9 9 10
9 9 9 8 7 6 6 6 6 6 6 6 6 5 4 4 4 4 4 5 5 5 5 5 5 6 7 7 7 7 8 8 7 7 8 7 7 8 8 8 8 8 8 9 9 9 9 10 10
8 9 9 8 7 6 6 6 6 6 6 6 6 5 5 4 4 4 4 5 5 5 5 5 6 7 7 7 7 8 8 7 8 8 8 8 8 8 8 8 8 8 9 9 9 9 9 10 10
8 8 8 7 6 6 6 5 6 6 6 6 6 6 5 5 5 5 6 6 6 6 6 6 6 7 7 7 7 7 7 7 7 8 8 8 7 7 8 8 8 8 9 9 9 9 10 10 10
8 8 8 7 6 7 7 6 6 7 6 6 6 7 7 7 7 6 6 6 6 7 7 7 7 7 7 7 6 7 7 7 7 7 8 8 7 7 8 9 9 9 9 9 10 10 10 10 11
9 9 9 8 7 7 7 7 7 7 7 8 8 8 8 8 7 7 6 7 7 7 7 7 7 7 7 7 7 7 7 7 7 7 8 7 8 8 7 7 8 8 9 9 10 10 10 10 10
9 9 9 8 8 7 7 7 7 7 8 8 9 8 7 7 7 6 6 7 7 6 6 7 6 7 7 7 7 7 7 7 7 8 8 8 9 9 8 8 8 8 9 10 11 11 11 11 11
10 10 10 9 9 9 8 8 8 8 8 8 8 9 8 8 8 8 8 7 7 7 7 7 7 7 8 8 8 8 8 8 8 8 8 9 10 9 9 9 9 10 10 11 11 11 12 12 12
10 10 10 10 10 9 9 10 10 9 8 8 8 9 9 9 9 9 9 8 8 8 8 8 8 8 9 9 9 9 9 9 9 9 9 9 9 9 10 10 10 10 10 11 11 12 12 12 12
10 10 11 11 11 10 11 11 10 9 9 9 9 9 10 9 9 9 9 9 8 8 9 9 9 9 10 10 9 9 9 10 10 10 10 10 10 10 10 10 11 11 11 12 12 12 12 12 12
11 11 11 11 11 11 12 11 11 10 9 9 9 9 10 10 10 10 10 9 9 9 10 10 10 10 10 10 10 10 10 10 11 11 11 11 11 11 11 11 11 11 12 12 12 12 12 12 13
11 11 11 12 12 12 11 12 12 12 12 11 10 10 10 10 10 10 10 10 10 10 11 11 11 11 11 11 11 11 11 12 12 13 13 12 12 12 12 12 12 12 13 13 13 12 12 12 13
12 12 12 12 12 12 13 12 12 13 13 12 11 11 11 10 10 10 10 11 11 11 11 11 11 12 12 12 12 12 12 13 14 14 14 14 13 13 13 13 13 13 14 13 13 13 13 13 13
13 12 12 13 13 13 13 12 12 13 13 12 12 12 12 12 12 12 11 12 12 12 12 12 12 12 13 13 13 13 13 14 15 15 14 14 14 14 14 14 15 15 15 15 14 13 14 14 14
14 14 13 14 14 13 13 13 13 13 13 13 12 12 13 13 13 12 13 14 13 13 13 14 14 13 14 14 15 15 14 14 15 15 15 15 15 15 15 15 15 16 16 16 16 15 15 16 16
14 14 14 14 14 14 14 13 13 13 14 13 13 13 14 14 14 13 14 14 14 14 14 15 15 14 15 15 16 15 16 16 16 16 17 17 17 17 17 16 17 17 17 17 17 18 18 18 18
15 14 14 14 15 14 14 13 12 13 14 13 14 14 14 14 13 13 13 14 14 15 15 16 16 16 16 16 16 16 16 17 17 17 17 18 18 18 18 17 18 18 18 18 19 19 20 19 19
14 14 14 15 15 15 14 14 12 13 13 13 13 14 14 14 14 14 14 15 15 15 16 16 17 17 17 17 18 18 18 18 18 18 18 18 18 18 18 18 19 19 19 20 20 20 21 21 20
12 13 15 15 16 16 15 15 13 14 13 13 14 15 15 15 15 15 16 16 16 16 17 17 17 18 18 19 19 19 19 20 19 19 19 19 19 19 19 19 19 20 20 20 21 21 21 21 20
13 13 14 15 16 16 15 16 14 13 13 14 14 15 15 16 16 16 16 17 18 18 18 18 19 19 19 19 19 20 20 21 21 21 20 20 19 19 20 20 20 21 21 21 22 22 21 21 21
13 14 15 16 16 16 16 16 15 14 14 15 15 15 16 17 17 17 18 18 19 19 18 19 20 20 20 20 20 21 21 22 22 22 22 22 21 21 21 21 21 22 22 22 22 22 21 21 21
14 14 15 16 16 17 17 17 16 15 16 16 16 17 17 18 18 18 19 19 19 19 19 20 20 21 21 21 22 22 22 23 23 23 22 22 22 22 22 22 22 23 23 23 22 22 22 22 21
15 15 15 17 18 18 18 17 17 17 17 17 17 18 18 19 19 19 19 19 20 21 21 21 21 22 22 22 22 23 23 23 23 23 23 22 22 22 22 23 23 24 24 24 23 23 23 22 22
15 16 17 18 18 18 18 17 17 18 18 18 18 18 19 19 19 20 20 20 21 21 22 22 23 23 23 23 22 23 23 23 23 23 23 23 23 23 23 23 24 24 24 24 24 23 23 23 23
17 18 18 19 19 19 19 17 17 19 18 19 19 19 20 20 21 21 21 21 21 22 22 23 23 23 23 24 23 23 23 23 23 23 23 23 23 23 24 24 24 24 25 25 25 24 24 24 24
Wind_Direction
215 207 197 199 208 214 211 209 199 200 198 205 211 218 229 232 227 230 243 248 247 248 248 245 236 237 246 245 241 245 256 261 263 266 269 276 279 283 283 282 276 275 276 277 275 270 276 280 280
224 220 215 214 222 221 219 214 201 199 202 217 227 234 247 250 246 248 252 253 249 250 255 249 241 248 252 253 250 251 259 264 264 270 271 275 280 285 286 283 277 275 277 278 277 271 274 278 279
230 225 225 227 228 230 228 219 213 206 212 219 231 237 245 252 253 256 258 258 258 252 256 257 252 253 254 251 252 258 264 268 271 274 274 278 280 282 284 285 279 277 277 278 280 278 277 274 274
235 233 233 235 231 228 222 219 215 205 219 224 229 233 240 248 249 249 250 251 256 259 262 263 258 256 254 253 257 264 269 272 276 278 280 281 282 285 285 284 279 277 277 280 283 281 278 278 276
236 237 240 240 235 229 216 215 213 214 225 232 233 237 237 244 252 257 256 250 248 258 262 266 266 260 257 259 265 269 273 277 281 281 283 283 286 290 286 286 282 278 277 280 283 285 284 284 284
234 238 245 244 237 230 224 219 221 229 231 238 242 245 245 246 247 253 258 261 254 256 257 261 262 263 266 266 269 277 280 280 283 281 284 287 292 294 289 286 284 280 281 283 283 283 283 285 286
234 238 244 246 239 234 225 222 222 228 232 236 241 244 248 244 247 255 258 263 260 258 259 254 258 267 270 270 273 275 274 273 274 277 282 288 290 289 291 287 286 286 287 287 283 282 284 286 287
235 237 239 240 239 239 229 225 227 233 240 242 240 244 241 238 245 258 265 268 274 274 267 261 261 272 277 274 272 274 273 272 273 277 281 281 285 287 290 289 288 289 289 289 286 285 285 287 288
238 239 239 239 240 239 234 228 230 237 241 245 243 246 245 243 254 266 264 267 271 275 272 273 274 283 279 279 277 277 277 277 277 279 282 282 284 287 288 289 290 291 290 288 287 287 286 287 288
239 239 239 240 242 241 242 239 236 241 246 249 252 252 252 253 258 265 262 265 267 272 276 281 282 285 285 285 285 285 283 284 284 282 281 279 280 287 286 286 287 287 288 287 287 290 291 292 290
239 238 242 244 246 242 245 248 245 247 250 250 252 254 259 258 258 263 267 267 267 271 277 281 281 283 286 290 294 295 296 289 285 282 281 277 275 282 282 285 285 286 288 291 291 291 294 295 293
240 240 243 248 249 248 250 252 251 251 254 255 252 249 250 250 251 262 270 273 271 269 277 281 285 284 284 288 295 298 298 295 295 289 282 278 281 281 281 288 292 294 294 293 294 292 294 293 291
241 241 244 246 251 251 252 253 252 255 258 260 256 247 245 250 253 262 270 272 270 270 275 279 282 284 284 285 289 293 295 292 289 290 290 284 282 285 287 293 295 296 298 296 294 292 291 292 293
245 244 246 248 250 253 255 258 258 257 259 260 257 252 249 250 252 257 263 268 270 272 274 275 276 279 284 284 289 291 288 286 290 293 292 289 289 291 298 297 295 296 299 302 296 292 291 292 293
248 251 252 254 255 256 257 260 261 258 257 256 254 250 251 251 251 254 258 262 267 270 272 275 278 280 283 283 282 283 286 289 291 292 292 291 293 295 296 299 300 299 297 299 300 292 294 292 292
252 254 256 255 254 256 258 259 260 260 258 256 255 253 254 252 250 252 255 259 265 269 271 275 278 280 282 281 279 281 285 288 289 287 287 291 294 296 296 297 296 299 302 301 300 297 295 297 295
253 257 258 255 254 255 257 258 257 257 257 257 255 252 251 249 253 257 259 259 263 268 273 275 275 275 278 281 282 282 284 284 284 286 288 290 293 295 297 297 297 297 298 298 298 297 295 297 296
254 256 255 254 253 254 256 257 258 258 256 254 253 252 252 252 257 259 260 261 265 268 271 274 275 276 277 279 280 280 281 281 282 283 285 286 288 290 292 293 295 296 297 296 298 299 297 294 292
255 255 252 252 254 255 256 256 254 255 253 253 255 255 253 253 259 262 266 263 265 268 269 271 273 275 277 279 279 277 277 280 281 280 281 281 283 287 290 293 291 293 296 296 295 295 296 293 290
254 254 253 254 255 255 257 256 255 252 251 251 252 255 255 253 260 263 265 266 267 269 271 273 274 274 277 280 280 278 278 278 277 278 279 279 282 287 290 291 292 291 292 292 292 291 292 293 292
251 254 254 256 256 255 256 254 253 251 249 248 249 251 255 255 259 264 265 265 267 269 270 273 274 275 278 278 276 276 277 277 278 280 280 281 284 286 287 288 289 288 289 290 290 290 292 293 292
252 253 255 256 255 255 255 253 250 251 250 250 250 250 252 255 259 265 265 265 268 270 270 273 275 276 276 275 275 278 277 275 276 279 281 281 281 282 283 285 286 286 287 288 290 290 292 293 292
257 254 255 256 257 255 255 256 251 251 250 254 254 251 251 256 262 266 269 268 267 269 271 272 275 276 276 277 278 279 279 279 279 277 278 280 281 280 280 282 284 285 286 288 288 290 291 292 291
257 256 257 256 258 255 254 256 252 251 254 256 256 253 252 257 264 269 271 272 270 270 271 272 276 277 278 278 278 278 279 281 282 281 278 277 278 278 279 280 281 283 285 286 287 289 290 292 292
257 256 259 258 257 257 255 255 255 253 255 257 258 257 257 260 264 268 271 274 273 271 271 273 275 277 278 277 278 277 278 280 281 282 282 280 278 276 278 280 281 282 283 283 284 287 288 290 293
257 257 259 260 261 261 257 256 255 255 255 260 260 260 261 263 263 267 271 275 276 276 272 272 275 276 277 278 277 277 279 280 281 283 283 281 280 277 278 280 281 282 282 283 283 284 286 289 292
259 259 260 262 262 262 259 257 257 256 256 261 263 264 265 268 269 270 273 276 277 277 275 275 276 277 277 277 278 278 279 282 283 284 284 282 280 279 279 280 281 281 283 284 282 283 286 289 290
260 259 261 260 264 264 262 260 261 259 260 262 264 267 269 270 272 273 273 273 275 276 277 277 278 278 278 278 278 278 279 281 283 283 282 280 279 279 281 282 282 281 280 281 282 282 285 286 288
260 260 263 263 265 265 261 261 263 265 265 266 266 268 269 270 273 274 273 272 273 274 275 277 278 278 278 278 278 277 278 279 280 281 281 279 278 278 279 282 283 282 280 279 281 282 282 283 286
266 265 266 266 266 267 267 264 264 265 265 264 265 267 270 272 273 274 272 271 272 274 275 276 278 278 277 277 278 277 277 278 279 279 279 279 277 277 278 281 283 282 280 278 279 280 280 281 284
Height
5870 5871 5872 5873 5874 5874 5873 5874 5874 5874 5875 5875 5875 5876 5876 5877 5877 5880 5878 5876 5877 5877 5877 5878 5878 5878 5878 5878 5878 5879 5879 5878 5878 5878 5878 5877 5877 5877 5876 5876 5875 5875 5875 5874 5874 5874 5873 5873 5872
5870 5870 5872 5873 5872 5873 5873 5873 5873 5874 5875 5874 5875 5875 5875 5875 5876 5876 5875 5875 5875 5876 5876 5877 5877 5877 5878 5878 5878 5878 5878 5878 5878 5877 5877 5876 5876 5876 5875 5875 5874 5873 5873 5873 5872 5872 5872 5871 5871
5869 5870 5871 5871 5871 5872 5872 5872 5873 5873 5873 5874 5874 5875 5875 5875 5875 5874 5875 5875 5874 5875 5875 5876 5876 5876 5877 5877 5877 5877 5877 5877 5877 5876 5876 5875 5875 5874 5874 5873 5872 5872 5872 5871 5871 5870 5870 5869 5869
5868 5869 5870 5870 5870 5871 5871 5871 5872 5872 5872 5873 5874 5874 5874 5874 5874 5874 5874 5874 5874 5874 5875 5875 5875 5875 5876 5876 5876 5876 5876 5876 5875 5875 5875 5874 5873 5873 5872 5871 5871 5870 5870 5870 5869 5869 5868 5868 5867
5867 5868 5868 5868 5868 5869 5869 5870 5871 5871 5872 5872 5873 5873 5873 5873 5873 5873 5873 5873 5873 5874 5874 5874 5874 5874 5875 5875 5875 5875 5875 5874 5874 5874 5873 5873 5872 5871 5870 5869 5869 5869 5868 5868 5867 5867 5866 5866 5866
5866 5866 5867 5867 5867 5868 5868 5869 5870 5870 5870 5871 5871 5872 5872 5872 5872 5872 5872 5872 5873 5873 5873 5873 5873 5873 5873 5874 5874 5873 5873 5873 5873 5872 5872 5871 5870 5869 5868 5867 5867 5867 5867 5866 5866 5865 5865 5864 5864
5865 5865 5865 5866 5866 5866 5867 5868 5868 5868 5869 5870 5870 5871 5871 5871 5871 5871 5871 5871 5871 5872 5872 5872 5872 5872 5872 5872 5872 5872 5872 5872 5871 5871 5870 5870 5869 5868 5867 5866 5865 5865 5865 5865 5864 5864 5863 5862 5862
5863 5864 5863 5864 5865 5865 5866 5866 5867 5867 5868 5868 5869 5869 5870 5870 5870 5870 5870 5870 5870 5870 5870 5870 5870 5871 5871 5871 5871 5870 5870 5870 5870 5869 5869 5868 5867 5866 5865 5864 5864 5864 5863 5863 5862 5862 5861 5860 5860
5862 5863 5862 5863 5863 5864 5864 5865 5865 5866 5866 5867 5867 5868 5868 5869 5868 5868 5869 5869 5869 5869 5869 5869 5869 5869 5869 5869 5869 5869 5869 5868 5868 5868 5867 5866 5865 5864 5864 5863 5862 5862 5861 5861 5860 5860 5859 5858 5858
5860 5861 5861 5861 5862 5862 5862 5863 5864 5864 5865 5865 5865 5866 5866 5866 5867 5867 5867 5867 5867 5867 5867 5867 5867 5867 5867 5867 5867 5867 5867 5867 5866 5866 5865 5864 5864 5863 5862 5861 5860 5859 5859 5859 5858 5857 5856 5856 5855
5858 5859 5859 5859 5860 5860 5861 5861 5862 5862 5863 5863 5863 5864 5864 5865 5865 5865 5865 5865 5866 5866 5865 5866 5865 5865 5866 5866 5866 5865 5865 5865 5864 5864 5863 5862 5862 5861 5860 5859 5859 5858 5857 5857 5856 5855 5854 5854 5853
5857 5857 5857 5858 5858 5859 5859 5860 5860 5860 5861 5861 5861 5862 5862 5863 5863 5863 5863 5864 5864 5864 5864 5864 5864 5864 5864 5864 5864 5863 5863 5863 5862 5862 5861 5860 5860 5859 5859 5858 5857 5856 5855 5854 5854 5853 5852 5851 5850
5854 5855 5855 5856 5856 5857 5857 5857 5858 5858 5859 5859 5859 5859 5860 5860 5861 5861 5862 5862 5862 5862 5862 5862 5862 5862 5862 5862 5862 5861 5861 5861 5860 5860 5859 5858 5858 5857 5857 5856 5855 5854 5853 5852 5851 5850 5850 5849 5848
5852 5853 5853 5853 5854 5854 5855 5855 5856 5856 5856 5857 5857 5857 5858 5858 5859 5859 5859 5860 5860 5860 5860 5860 5860 5860 5860 5860 5860 5859 5859 5858 5858 5857 5857 5856 5855 5855 5854 5853 5853 5852 5851 5850 5849 5848 5847 5846 5845
5849 5850 5851 5851 5851 5852 5852 5853 5853 5853 5854 5854 5854 5855 5855 5855 5856 5857 5857 5857 5857 5857 5857 5858 5858 5858 5857 5857 5857 5857 5856 5856 5856 5855 5854 5854 5853 5852 5852 5851 5850 5849 5848 5848 5846 5845 5844 5843 5842
5847 5848 5848 5849 5849 5849 5851 5850 5851 5850 5851 5852 5852 5852 5852 5853 5853 5854 5854 5854 5855 5855 5855 5855 5855 5855 5855 5855 5854 5854 5854 5853 5853 5852 5852 5851 5850 5850 5849 5848 5848 5847 5845 5844 5843 5842 5841 5840 5839
5844 5844 5845 5845 5845 5845 5846 5846 5847 5847 5848 5848 5849 5849 5849 5850 5850 5850 5851 5852 5852 5852 5852 5852 5852 5852 5852 5852 5851 5851 5851 5850 5850 5849 5849 5848 5847 5847 5846 5845 5844 5843 5842 5841 5840 5839 5838 5837 5836
5841 5841 5841 5841 5842 5842 5842 5842 5843 5843 5844 5845 5845 5846 5846 5847 5847 5847 5848 5848 5848 5849 5849 5849 5849 5849 5849 5849 5848 5848 5848 5847 5846 5845 5845 5844 5844 5843 5843 5842 5841 5840 5839 5838 5837 5836 5834 5833 5832
5837 5837 5837 5838 5838 5838 5838 5839 5839 5839 5840 5841 5841 5842 5842 5843 5843 5844 5844 5844 5845 5845 5845 5845 5845 5845 5845 5845 5845 5844 5844 5843 5842 5842 5841 5841 5840 5840 5839 5838 5837 5836 5835 5834 5833 5832 5831 5829 5828
5832 5832 5833 5833 5834 5834 5834 5835 5835 5835 5836 5837 5837 5838 5838 5839 5840 5840 5840 5841 5841 5841 5842 5841 5842 5841 5841 5841 5841 5840 5840 5839 5838 5838 5837 5837 5836 5835 5835 5834 5833 5832 5831 5830 5829 5828 5826 5825 5824
5828 5828 5828 5829 5829 5829 5830 5831 5832 5832 5832 5833 5833 5834 5834 5835 5836 5836 5836 5836 5837 5837 5837 5837 5837 5837 5837 5837 5836 5836 5835 5835 5834 5834 5833 5832 5832 5831 5830 5829 5829 5828 5827 5826 5824 5823 5822 5820 5819
5823 5824 5824 5824 5825 5825 5826 5826 5828 5828 5828 5828 5829 5830 5831 5832 5832 5832 5832 5832 5832 5833 5833 5833 5833 5833 5832 5832 5832 5831 5831 5830 5830 5829 5828 5827 5827 5826 5825 5824 5824 5823 5822 5821 5819 5818 5816 5815 5813
5819 5820 5820 5820 5820 5821 5821 5822 5824 5823 5824 5825 5825 5826 5827 5827 5828 5828 5828 5828 5828 5828 5828 5828 5827 5827 5827 5827 5826 5826 5826 5825 5824 5824 5823 5822 5821 5821 5820 5819 5818 5817 5816 5815 5813 5812 5811 5809 5807
5816 5816 5816 5815 5815 5816 5817 5817 5819 5819 5820 5821 5821 5822 5822 5823 5823 5824 5824 5823 5823 5823 5823 5823 5822 5822 5822 5821 5821 5820 5820 5819 5819 5818 5817 5816 5816 5815 5814 5813 5812 5811 5810 5809 5807 5806 5805 5803 5801
5812 5813 5812 5811 5811 5812 5813 5813 5815 5816 5816 5817 5817 5817 5818 5818 5819 5819 5819 5818 5818 5818 5818 5818 5817 5817 5816 5816 5815 5815 5814 5813 5813 5812 5811 5810 5809 5809 5808 5807 5806 5805 5804 5802 5801 5800 5798 5797 5795
5808 5809 5809 5808 5807 5807 5808 5808 5811 5811 5812 5812 5812 5813 5813 5814 5814 5814 5814 5813 5813 5813 5812 5812 5812 5811 5810 5810 5809 5809 5808 5807 5806 5805 5804 5804 5803 5802 5801 5800 5800 5798 5797 5796 5794 5793 5792 5791 5789
5804 5804 5804 5804 5803 5802 5803 5804 5806 5807 5807 5808 5808 5808 5808 5808 5808 5808 5808 5808 5807 5807 5806 5806 5806 5805 5804 5804 5803 5802 5801 5800 5799 5798 5797 5796 5796 5795 5794 5793 5792 5791 5790 5789 5788 5787 5786 5785 5783
5801 5800 5800 5799 5798 5797 5799 5800 5802 5802 5802 5803 5803 5803 5803 5803 5803 5803 5802 5802 5801 5801 5800 5800 5799 5798 5798 5797 5796 5795 5794 5794 5793 5792 5790 5789 5789 5788 5787 5786 5785 5784 5783 5782 5781 5780 5779 5778 5777
5797 5796 5795 5794 5793 5793 5793 5797 5797 5797 5797 5797 5798 5797 5797 5798 5797 5797 5797 5796 5795 5795 5794 5794 5793 5792 5791 5790 5789 5788 5787 5787 5786 5785 5784 5782 5782 5781 5780 5779 5778 5776 5775 5774 5774 5773 5772 5771 5770
5791 5791 5790 5790 5789 5788 5788 5793 5791 5791 5792 5792 5792 5792 5792 5792 5791 5791 5790 5789 5789 5788 5787 5787 5786 5785 5784 5783 5782 5781 5780 5779 5779 5778 5777 5776 5775 5774 5773 5772 5770 5769 5768 5767 5766 5765 5765 5764 5763